Regional Weather Roundup
Issued by NWS Cleveland, OH

Home | Current Version | Previous Version | Text Only | Print | Product List | Glossary Off
Versions: 1 2 3 4 5 6 7 8 9 10 11 12 13 14 15 16 17 18 19 20 21 22 23 24 25 26 27 28 29 30 31 32 33 34 35 36 37 38 39 40 41 42 43 44 45 46 47 48 49 50

000
ASUS41 KCLE 271812
RWRCLE
OHIO REGIONAL WEATHER ROUNDUP
NATIONAL WEATHER SERVICE WILMINGTON, OH
200 PM EDT SAT AUG 27 2016

NOTE: "FAIR" INDICATES FEW OR NO CLOUDS BELOW 12,000 FEET WITH NO
SIGNIFICANT WEATHER AND/OR OBSTRUCTIONS TO VISIBILITY.

OHZ001>008-015>018-024>027-034-035-043-044-271900-
   NORTHWEST OHIO

CITY           SKY/WX    TMP DP  RH WIND       PRES   REMARKS
DEFIANCE       RAIN      73  69  87 E3        30.14R FOG
FINDLAY        FAIR      90  72  55 S20       30.07F HX  97
TOLEDO EXPRESS PTSUNNY   85  74  69 SW10      30.08S THUNDER HX  92
TOLEDO EXEC    FAIR      90  75  61 S14       30.07F HX 100
LIMA           FAIR      88  75  65 SW14      30.11R HX  97
$$

OHZ009>014-019>023-028>033-038-089-271900-
   NORTHEAST OHIO

CITY           SKY/WX    TMP DP  RH WIND       PRES   REMARKS
CLE-HOPKINS    FAIR      91  66  43 S9        30.13F HX  93
CLE-LAKEFRONT  FAIR      90  64  42 S13G18    30.10F HX  91
CUY CO. ARPT   MOSUNNY   90  68  48 S9        30.14F HX  93
LORAIN-ELYRIA  FAIR      88  68  51 S9        30.11F HX  91
ASHTABULA      FAIR      84  64  50 SE10      30.16F
AKRON-CANTON   FAIR      86  64  47 CALM      30.15F
WOOSTER        FAIR      85  71  63 SW6       30.15F HX  90
MANSFIELD      FAIR      88  71  57 S10       30.14F HX  94
YOUNGSTOWN     FAIR      83  66  56 E9        30.17F
$$

OHZ042-051>053-060>062-070>072-077>081-271900-
  SOUTHWEST OHIO

CITY           SKY/WX    TMP DP  RH WIND       PRES   REMARKS
CINC-COVINGTON CLOUDY    89  73  59 S7        30.11S HX  97
CINC-LUNKEN    MOSUNNY   90  75  62 S7        30.09  HX 100
HAMILTON       FAIR      90  74  59 SW6       30.11S HX  99
DAYTON         PTSUNNY   89  71  55 SW6       30.13R HX  95
WRIGHT-PAT AFB MOSUNNY   89  72  56 VRB6      30.11S HX  97
DAYTON GENERAL PTSUNNY   88  72  58 SW8       30.11S HX  94
WILMINGTON     FAIR      89  74  60 S7        30.11F HX  98
$$

OHZ036-037-039>041-045>050-054>059-063>069-073>076-082>088-271900-
  CENTRAL AND SOUTHEAST OHIO

CITY           SKY/WX    TMP DP  RH WIND       PRES   REMARKS
COLUMBUS       FAIR      89  72  56 S9        30.10F HX  96
OSU AIRPORT    FAIR      88  72  58 S10G20    30.11F HX  94
BOLTON FIELD   MOSUNNY   88  77  70 S6        30.12F HX 100
RICKENBACK AFB FAIR      88  74  61 SE7       30.10F HX  97
NEWARK         FAIR      89  71  55 VRB6      30.12F HX  95
MARION         FAIR      87  73  62 S10       30.12F HX  94
LANCASTER      FAIR      90  73  57 S7        30.11F HX  98
ZANESVILLE     FAIR      90  70  51 S7        30.13F HX  95
NEW PHILLY     FAIR      90  68  48 VRB3      30.14F HX  94
$$



USA.gov is the U.S. government's official web portal to all federal, state and local government web resources and services.